Theta_e
339 340 329 323 310 311 307 310 320 319 322 327 329 327 326 329 322 315 339 334 341 352 353 356 362 360 359 360 359 357 357 355 353 352 352 351 351 349 351 350 350 349 346 346 345 344 343 343 343
325 329 322 315 307 300 307 315 314 318 328 331 331 329 328 325 335 335 335 343 349 350 351 356 362 360 358 357 357 357 355 353 351 351 350 349 349 350 348 350 348 346 346 345 344 343 342 341 341
326 318 306 311 306 303 306 316 318 322 327 328 326 331 328 329 333 331 344 349 350 350 351 354 360 359 357 357 357 355 353 351 350 349 348 348 347 349 349 349 346 345 344 343 342 341 340 340 340
314 310 308 305 305 311 313 318 319 320 324 328 327 323 335 341 341 345 350 350 348 348 353 357 359 359 356 356 355 353 351 349 349 348 348 348 346 348 349 346 345 344 343 341 340 339 339 339 339
313 304 306 305 305 312 318 319 320 320 322 326 327 325 331 342 347 347 348 349 347 346 350 352 358 358 356 356 353 351 349 349 350 348 347 347 346 346 345 343 343 342 341 339 337 337 337 337 338
304 302 301 299 305 313 317 319 319 321 326 327 327 327 328 342 344 345 348 346 347 347 347 350 355 354 355 353 351 349 350 349 348 349 348 347 346 346 343 342 342 341 340 338 335 333 335 336 338
300 297 300 303 308 313 317 323 319 321 317 323 328 324 331 335 340 343 342 342 344 345 346 347 348 350 353 351 350 349 349 349 349 349 349 348 346 347 346 345 342 341 340 338 335 334 335 337 339
304 301 305 307 307 308 317 321 324 323 320 327 331 324 324 332 335 335 334 333 334 336 340 344 343 343 343 343 349 347 346 346 347 346 346 347 343 343 343 347 346 341 339 336 336 336 337 339 341
305 299 304 308 312 314 319 320 327 332 326 326 329 329 332 334 335 332 331 331 332 334 337 337 339 341 343 342 344 344 344 343 341 341 344 336 335 334 337 340 341 341 339 337 336 338 338 333 332
302 301 307 316 319 315 320 321 326 325 325 324 325 329 331 332 330 328 326 326 328 330 333 334 336 339 341 341 334 332 333 332 330 329 330 332 332 337 337 339 340 341 339 339 336 335 331 327 320
315 310 321 321 323 321 315 318 326 322 319 323 321 324 327 328 328 326 326 327 329 331 330 332 332 332 333 333 333 331 329 328 329 329 329 330 330 330 331 331 334 333 333 330 330 328 327 323 322
318 323 323 321 323 322 320 322 320 321 320 325 325 326 325 323 323 325 324 325 325 325 325 327 328 328 328 328 328 328 328 327 326 326 327 326 328 326 326 327 328 327 328 327 327 326 325 323 322
316 319 323 325 323 321 322 319 320 320 323 326 325 324 323 322 322 323 324 325 325 324 325 325 326 324 323 323 325 326 328 327 324 323 323 323 326 326 326 324 325 324 323 323 323 323 322 321 322
319 318 320 322 321 321 317 319 320 320 323 322 322 320 321 320 320 320 322 321 319 321 323 321 320 322 322 321 319 319 322 323 322 321 321 320 319 318 319 322 325 324 322 322 323 322 322 320 317
318 312 318 320 320 319 320 314 315 320 321 319 319 319 318 318 319 319 321 321 319 316 315 316 316 316 315 313 314 318 318 321 319 319 318 317 316 315 314 315 316 316 320 320 322 317 317 316 317
309 311 304 309 317 317 315 305 317 320 318 316 317 316 315 316 317 319 320 317 316 315 314 314 317 314 312 312 313 312 312 314 318 319 316 318 317 315 313 313 313 314 317 321 321 318 316 315 315
305 299 301 307 314 312 312 310 315 319 317 315 314 314 313 314 316 319 318 317 315 315 316 315 314 312 311 311 312 311 310 311 317 319 320 319 321 319 315 313 313 311 313 313 314 314 314 311 311
299 300 302 304 308 310 310 309 313 316 317 314 313 313 313 314 314 317 318 319 317 317 316 316 314 311 310 311 311 310 309 310 312 313 314 315 315 316 312 309 309 309 309 310 312 312 312 312 312
308 304 303 306 312 304 303 304 309 313 315 313 313 313 312 313 317 318 321 322 320 319 318 317 313 310 310 308 308 308 306 306 309 313 316 315 315 316 309 308 309 309 309 308 310 310 310 310 311
307 305 303 306 310 308 307 306 311 314 314 314 312 312 313 314 315 319 319 319 318 319 318 316 312 310 310 308 308 306 306 306 306 309 313 314 314 314 310 308 308 309 309 308 308 307 307 309 314
301 300 300 301 306 308 305 304 308 313 315 317 316 316 316 315 313 314 314 313 315 312 313 310 310 310 313 309 308 307 307 306 306 307 307 311 314 313 311 310 310 308 308 307 307 307 306 304 308
298 305 304 304 300 295 305 295 303 306 309 314 314 314 313 315 314 309 309 312 314 310 311 312 311 309 309 308 305 303 303 302 304 306 309 310 313 314 314 311 311 313 308 307 307 312 308 306 304
303 307 303 302 297 298 300 297 302 305 306 310 311 313 311 311 310 309 311 315 312 313 310 308 306 305 307 307 306 308 305 303 305 305 305 308 309 311 311 310 309 309 308 307 307 308 307 308 306
309 303 300 296 294 291 297 296 296 301 306 308 308 309 309 309 312 314 316 308 307 307 305 304 304 306 307 308 308 302 301 300 300 300 301 302 303 305 307 309 307 308 308 308 308 309 309 308 307
302 295 287 286 287 289 300 296 295 307 311 307 305 307 309 310 310 305 304 302 302 303 304 306 304 304 306 305 303 302 301 300 299 299 299 299 300 302 304 306 306 310 313 312 309 307 308 308 306
298 295 289 283 283 291 299 294 297 308 311 310 309 308 308 305 301 300 300 301 300 302 303 303 303 302 302 302 302 301 300 299 300 299 299 299 299 302 309 309 312 312 313 311 306 306 306 306 306
299 295 297 291 293 291 295 301 307 310 309 308 305 307 301 299 299 300 300 300 300 301 301 301 301 302 304 302 302 301 301 300 300 300 301 301 304 309 310 309 310 311 311 307 304 305 305 305 305
301 303 293 292 286 285 291 292 296 303 305 304 304 303 299 298 298 298 298 299 299 298 299 301 304 302 304 301 301 305 302 305 305 302 303 304 306 308 307 306 307 309 307 307 306 305 307 304 305
298 296 296 295 293 287 287 292 302 302 304 303 302 302 297 297 297 297 298 298 299 299 301 300 304 303 301 301 301 302 301 302 304 302 302 305 306 307 307 305 305 306 305 304 307 308 308 307 307
301 297 295 289 289 291 290 293 304 305 303 300 300 298 297 297 297 297 297 298 299 299 300 304 302 302 302 304 304 302 301 301 300 301 302 302 302 303 303 304 304 303 303 304 305 307 308 308 307
Wind_Speed
5 4 2 4 7 7 5 6 7 8 13 15 18 13 13 12 4 11 3 5 10 6 5 9 12 12 13 13 13 14 14 14 15 15 15 15 15 16 14 14 14 15 16 16 16 16 16 16 17
1 4 4 3 6 6 2 4 8 7 10 13 13 14 17 13 9 10 6 9 8 7 4 6 12 12 13 13 13 13 13 14 14 14 15 15 15 15 14 13 14 15 15 15 15 15 14 15 16
3 1 4 5 5 7 3 6 9 9 12 7 7 11 6 12 12 13 5 11 9 6 4 8 13 12 13 13 13 13 13 13 14 14 14 14 14 13 12 12 13 14 14 13 13 12 13 13 15
2 4 5 6 10 5 12 9 3 7 7 9 1 10 7 7 6 10 18 14 10 7 6 10 13 13 13 13 13 13 12 12 12 13 14 14 14 12 11 12 12 12 11 10 10 10 11 12 13
4 3 7 6 4 3 3 4 4 6 4 1 14 12 8 16 18 17 15 12 11 6 6 7 12 12 12 13 12 12 12 11 11 13 13 13 12 12 11 11 10 9 8 7 7 7 9 11 12
3 4 6 3 3 7 1 2 3 4 5 13 17 13 7 9 16 14 13 10 9 7 4 7 13 12 11 11 10 10 9 9 9 9 11 11 11 11 11 10 9 7 6 4 2 4 8 11 13
5 6 5 5 3 7 5 5 5 3 5 8 3 8 6 13 12 12 12 10 8 6 5 5 5 9 11 11 10 10 8 8 7 7 8 9 10 10 10 10 10 9 7 3 0 5 8 10 13
6 6 6 4 1 5 1 4 7 8 8 1 7 6 7 13 15 15 12 14 13 11 7 6 5 5 5 3 10 9 8 7 5 5 4 3 2 4 5 6 7 6 4 2 2 6 9 10 11
4 5 6 8 10 8 3 3 2 2 9 15 9 19 17 11 11 13 14 14 13 13 12 8 6 4 5 5 5 7 8 10 9 5 8 7 4 4 5 4 5 6 5 2 3 5 8 9 9
6 6 4 5 5 7 8 2 3 5 14 12 12 18 17 16 12 14 13 12 13 14 14 11 10 7 7 5 6 6 7 5 6 6 6 4 5 5 6 5 3 6 5 6 10 11 9 8 5
5 6 14 8 20 15 5 4 8 8 8 9 10 14 15 16 13 13 12 10 12 9 10 10 10 10 7 7 4 3 3 3 4 8 6 5 4 4 3 2 2 3 6 3 4 4 3 6 4
22 14 9 12 15 11 7 6 12 14 9 13 13 13 15 14 12 11 11 11 11 9 8 8 8 8 8 5 4 3 3 3 3 4 5 3 2 3 3 3 3 3 3 3 3 2 1 4 5
30 12 13 16 16 13 17 12 12 16 14 13 13 16 14 12 11 8 9 7 7 9 7 8 8 7 6 6 4 4 3 3 2 3 4 3 3 3 3 3 3 2 1 1 1 2 3 4 6
13 21 21 17 17 17 16 15 5 12 14 13 13 12 11 11 9 9 7 7 8 8 7 7 8 7 7 6 6 4 3 0 2 2 2 5 3 2 2 2 3 3 2 2 2 3 3 4 4
16 16 15 17 18 9 23 10 11 14 14 15 12 10 10 9 8 7 6 6 6 5 5 5 5 6 6 6 6 5 4 4 3 1 2 3 4 3 2 2 2 3 3 4 2 3 3 4 4
3 7 4 8 10 5 4 8 16 16 15 7 8 8 6 5 4 5 4 4 5 5 5 6 6 7 8 7 5 4 5 5 3 2 1 1 1 3 0 2 2 3 3 3 3 3 3 4 3
8 3 3 7 6 8 8 14 14 12 14 12 10 8 4 3 3 1 1 1 3 3 3 5 6 7 8 8 6 6 7 5 4 2 3 3 4 5 1 1 3 5 2 2 3 3 3 3 4
5 3 1 4 4 21 22 22 12 6 7 9 8 8 6 5 3 3 4 4 2 2 3 2 3 6 6 5 5 5 4 5 4 3 3 4 4 4 2 2 2 3 3 4 2 3 2 4 4
5 4 6 7 8 21 18 17 11 7 9 7 7 7 6 4 2 4 4 5 1 1 2 2 4 5 5 3 3 3 4 3 3 4 6 6 6 6 4 3 3 2 1 3 4 2 2 3 2
6 4 6 16 24 24 15 11 6 8 7 6 7 6 7 3 2 3 2 2 2 3 3 5 4 4 4 2 2 1 2 3 2 4 5 5 6 5 4 3 4 4 2 3 3 2 1 3 2
3 3 1 16 17 20 25 9 5 5 5 5 7 4 5 4 4 2 1 4 3 3 5 5 4 5 5 7 4 4 4 3 4 4 4 4 5 4 4 5 4 4 2 2 3 3 2 1 2
8 5 7 16 9 7 9 6 3 0 2 10 8 6 5 5 2 2 4 2 4 4 6 5 7 7 6 6 5 5 2 3 3 3 4 5 7 7 7 6 5 4 2 3 3 3 2 2 2
2 2 5 4 8 6 7 7 3 4 3 6 7 6 6 6 7 2 3 6 7 5 5 5 6 6 5 5 4 3 4 3 3 4 7 7 6 5 5 5 6 5 3 3 3 3 2 1 3
1 9 10 6 5 6 8 5 3 2 6 6 5 7 7 6 6 3 3 6 6 7 6 3 3 4 5 6 5 6 6 6 5 5 5 5 4 5 6 6 5 4 3 4 3 3 3 2 1
12 9 5 7 7 2 4 8 4 4 6 7 9 7 4 4 3 7 7 7 7 7 6 5 7 7 7 7 6 6 6 6 5 5 4 5 4 4 6 6 5 2 4 4 4 5 5 4 2
5 7 6 2 3 4 6 3 2 1 8 7 6 6 4 7 8 6 5 6 5 5 6 6 7 7 7 5 6 6 6 4 3 4 4 4 3 5 5 5 5 7 6 4 5 3 4 4 4
4 4 2 4 5 6 1 1 3 7 7 8 8 6 7 7 6 7 7 4 3 4 5 5 6 4 4 6 6 6 5 6 5 6 4 3 4 5 6 5 5 6 5 5 5 3 5 5 4
7 3 6 5 3 3 2 1 1 8 9 7 8 7 7 5 6 5 4 4 3 2 3 6 5 3 5 6 5 5 6 6 5 5 6 6 6 6 6 6 5 5 6 6 5 4 3 5 4
7 5 6 5 4 5 4 2 5 6 8 10 7 6 9 7 6 4 3 3 4 4 5 5 5 5 5 5 5 6 6 7 6 5 6 5 5 6 6 6 6 6 6 6 5 5 5 5 5
4 4 5 6 1 3 4 1 4 11 9 8 8 9 7 7 6 5 2 3 4 5 6 5 5 6 5 4 5 6 6 7 6 6 6 6 6 6 5 5 6 6 6 6 6 6 5 5 5
Wind_Direction
148 171 173 83 53 69 44 343 310 48 60 69 76 81 72 50 32 120 29 183 212 127 107 112 108 108 109 104 99 100 101 102 103 105 104 102 98 97 95 93 92 89 85 78 70 60 49 38 37
214 157 31 72 77 61 32 312 340 326 102 92 87 95 80 78 73 103 112 214 153 117 105 108 108 109 109 105 103 103 103 106 108 110 112 109 104 104 103 100 94 90 83 75 66 56 45 36 33
253 121 79 99 79 88 30 317 328 349 355 2 83 55 67 118 123 145 180 161 108 106 121 110 104 107 109 108 111 110 114 114 116 116 116 115 110 107 104 100 96 89 82 73 64 52 39 29 31
124 19 31 64 98 134 166 239 290 332 340 337 195 57 44 97 106 123 124 123 118 102 104 105 106 111 117 118 116 118 119 119 121 123 124 122 117 109 105 102 99 93 87 78 64 46 31 18 18
46 50 49 70 83 88 31 80 1 65 157 100 76 85 77 79 112 114 118 124 114 102 103 103 108 106 110 120 122 122 123 125 129 131 131 128 125 117 113 110 106 104 98 82 61 40 20 1 3
39 98 73 92 130 139 80 68 229 199 120 112 80 85 60 106 110 113 116 118 112 106 85 107 111 109 109 110 113 116 119 124 127 131 136 138 136 134 133 135 137 135 132 123 93 33 13 355 349
120 80 104 125 127 32 32 338 275 187 56 31 54 88 96 90 84 95 89 85 87 90 89 71 79 107 111 111 113 116 119 118 118 125 139 151 156 154 157 160 162 169 168 162 345 14 3 352 338
118 90 120 125 188 53 251 225 309 22 57 99 15 113 95 58 61 67 69 73 65 63 61 49 60 79 72 83 106 108 111 112 105 121 131 129 144 176 187 193 193 182 170 172 333 357 355 340 328
129 74 129 154 141 217 202 178 293 29 76 48 52 65 79 65 66 69 66 60 60 59 58 48 46 62 80 79 91 86 92 61 28 30 58 46 15 346 335 297 252 217 191 212 339 339 356 8 7
86 94 63 184 91 123 120 3 75 91 87 79 69 67 66 65 63 61 58 59 55 49 39 29 38 36 47 40 57 47 51 47 40 43 48 37 30 26 30 3 271 204 95 83 67 51 43 14 335
355 107 112 74 115 119 115 73 17 111 70 59 89 82 71 62 57 59 60 70 62 57 48 32 34 36 38 43 39 55 48 56 57 52 45 35 27 21 15 0 27 48 76 82 85 76 35 344 331
91 65 93 122 108 110 107 77 72 63 77 85 84 78 77 67 59 62 58 52 62 56 51 44 39 39 35 46 46 49 65 58 61 62 76 61 38 30 25 12 10 31 20 15 16 28 85 289 288
105 113 119 128 120 125 125 113 97 82 91 79 79 73 74 74 74 59 51 47 58 64 48 40 36 36 22 31 25 31 57 75 93 85 82 84 70 48 23 16 29 55 33 24 320 298 300 297 306
154 132 128 139 139 123 108 125 90 108 100 80 64 64 69 71 62 69 53 51 49 47 40 33 28 20 18 14 4 358 358 302 108 75 84 74 86 82 52 0 346 324 305 288 282 283 277 279 297
158 121 132 153 151 131 129 72 90 105 80 78 68 54 55 63 62 45 24 36 54 47 38 36 45 42 37 11 3 359 349 330 322 192 132 120 128 128 150 183 241 253 268 277 276 304 307 307 299
210 73 40 168 147 92 321 98 103 103 85 74 91 76 63 43 52 41 39 51 68 74 54 32 20 22 25 21 15 10 349 335 302 247 213 242 186 155 352 334 280 265 255 243 238 226 253 255 266
1 140 179 20 63 104 95 130 111 114 127 159 132 119 105 56 42 343 321 357 88 94 60 36 27 13 13 5 6 12 356 354 358 19 317 315 325 333 326 355 324 330 288 249 234 252 224 244 254
223 153 318 159 67 89 99 108 103 125 135 146 145 140 148 162 192 302 297 287 210 145 91 60 27 9 9 7 0 2 1 356 21 27 36 19 326 295 327 349 330 340 344 329 327 242 246 246 279
149 113 208 75 99 69 93 115 120 150 180 140 126 151 162 183 199 259 271 289 221 124 143 36 36 355 24 357 344 339 331 319 322 356 342 0 341 320 332 339 348 336 352 305 297 293 270 296 230
115 95 94 58 86 97 117 118 138 172 158 157 152 160 164 150 242 273 321 102 30 158 74 54 51 22 360 341 315 315 296 306 319 337 334 333 337 325 330 341 325 332 316 329 290 263 244 251 203
125 134 54 128 89 123 126 89 100 74 107 141 157 162 135 97 75 94 25 10 67 56 106 81 64 26 12 9 357 345 343 347 350 343 331 314 331 8 25 17 342 313 305 316 297 288 265 264 307
42 324 38 127 163 185 207 119 96 131 39 117 88 93 120 122 150 280 332 344 46 67 45 51 29 16 21 13 24 26 349 323 295 302 310 334 347 358 4 357 335 312 340 322 297 293 251 187 246
166 343 32 58 71 114 37 89 96 198 93 116 123 164 182 152 185 265 301 25 33 99 70 47 42 28 8 21 10 355 3 316 310 331 342 343 349 338 333 337 330 336 335 330 332 342 337 211 170
115 39 35 45 85 55 320 115 310 243 155 156 179 210 165 202 210 235 76 80 53 42 40 53 19 356 2 31 13 19 17 350 354 340 338 333 323 315 327 322 331 333 22 14 5 2 25 14 74
56 50 2 4 28 83 295 54 215 227 188 170 173 183 173 160 71 67 68 51 42 32 22 17 12 356 354 27 10 8 359 351 345 333 323 332 323 319 325 323 336 340 45 21 24 19 10 5 52
77 125 142 260 187 175 15 81 215 155 106 138 142 126 136 63 94 98 80 87 61 36 25 16 355 0 15 21 0 355 351 344 329 323 319 321 314 313 311 337 28 37 32 33 23 18 11 26 58
335 27 173 126 64 85 120 89 120 115 130 121 119 125 95 108 100 78 68 88 72 35 358 333 5 35 359 359 351 345 346 345 335 333 319 307 313 326 354 13 28 24 17 29 26 12 11 28 43
101 237 27 8 87 95 70 289 190 156 171 139 146 135 142 116 107 90 86 65 27 16 334 358 15 36 17 6 354 357 342 337 341 339 345 356 338 336 354 7 27 23 23 13 14 0 358 46 25
17 24 57 107 80 141 150 259 229 177 161 158 163 127 141 133 121 109 77 20 9 357 19 1 15 360 16 13 357 1 345 344 345 350 347 353 338 350 4 4 29 40 29 15 20 15 16 62 60
94 107 104 114 36 62 113 359 137 133 154 149 144 124 127 133 126 128 107 60 31 14 8 10 16 21 5 360 360 2 348 354 355 356 349 356 3 358 356 13 53 41 28 21 21 19 20 43 72